Weather History for Fort Myers, FL

Change the Weather History Date:

Monday, May 27, 2013

  Actual Average Record
Temperature  
Mean Temperature 79 °F 81 °F  
Max Temperature 91 °F 91 °F 98 °F (1989)
Min Temperature 67 °F 71 °F 60 °F (1979)
Degree Days  
Heating Degree Days 0 0  
Month to date heating degree days 0 0  
Since 1 July heating degree days 201 287  
Cooling Degree Days 14 16  
Month to date cooling degree days 333 371  
Year to date cooling degree days 1079 1001  
Growing Degree Days 29 (Base 50)    
Moisture  
Dew Point 65 °F    
Average Humidity 65    
Maximum Humidity 84    
Minimum Humidity 44    
Precipitation  
Precipitation 0.00 in 0.13 in 2.98 in (1947)
Month to date precipitation 3.63 2.06  
Year to date precipitation 9.98 11.21  
Sea Level Pressure  
Sea Level Pressure 30.11 in    
Wind  
Wind Speed 10 mph (ENE)    
Max Wind Speed 18 mph    
Max Gust Speed 23 mph    
Visibility 10 miles    
Events      
T = Trace of Precipitation, MM = Missing Value Source: NWS Daily Summary

Daily Weather History Graph

Daily Weather History Graph

Search for Another Location

Airport:

Trip Planner

Search our weather history database for the weather conditions in past years. The results will help you decide how hot, cold, wet, or windy it might be!

Date:

Astronomy

May. 27, 2013 Rise Set
Actual Time 6:35 AM EDT 8:14 PM EDT
Civil Twilight 6:09 AM EDT 8:39 PM EDT
Nautical Twilight 5:38 AM EDT 9:10 PM EDT
Astronomical Twilight 5:06 AM EDT 9:43 PM EDT
Moon 10:58 PM EDT (5/27) 9:07 AM EDT (5/27)
Length of Visible Light 14h 30m
Length of Day
13h 38m
Waning Gibbous, 91% of the Moon is Illuminated
May 27
Waning Gibbous
May 31
Last Quarter
Jun 8
New
Jun 16
First Quarter
Jun 23
Full

Hourly Weather History & Observations

Time (EDT) Temp. Heat Index Dew Point Humidity Pressure Visibility Wind Dir Wind Speed Gust Speed Precip Events Conditions
12:53 AM 73.0 °F - 62.1 °F 68% 30.16 in 10.0 mi East 8.1 mph - N/A   Clear
1:53 AM 72.0 °F - 63.0 °F 73% 30.16 in 10.0 mi East 4.6 mph - N/A   Clear
2:53 AM 70.0 °F - 64.0 °F 81% 30.14 in 10.0 mi ENE 5.8 mph - N/A   Clear
3:53 AM 69.1 °F - 64.0 °F 84% 30.12 in 10.0 mi ENE 6.9 mph - N/A   Clear
4:53 AM 69.1 °F - 63.0 °F 81% 30.12 in 10.0 mi ENE 5.8 mph - N/A   Clear
5:53 AM 68.0 °F - 63.0 °F 84% 30.12 in 10.0 mi ENE 4.6 mph - N/A   Clear
6:53 AM 68.0 °F - 63.0 °F 84% 30.13 in 10.0 mi NE 4.6 mph - N/A   Clear
7:53 AM 71.1 °F - 63.0 °F 75% 30.14 in 10.0 mi ENE 6.9 mph - N/A   Partly Cloudy
8:53 AM 75.0 °F - 63.0 °F 66% 30.14 in 10.0 mi East 8.1 mph - N/A   Mostly Cloudy
9:53 AM 77.0 °F - 64.0 °F 64% 30.14 in 10.0 mi ENE 10.4 mph - N/A   Mostly Cloudy
10:53 AM 82.0 °F 83.8 °F 64.9 °F 56% 30.13 in 10.0 mi East 12.7 mph - N/A   Scattered Clouds
11:53 AM 84.0 °F 86.3 °F 66.0 °F 55% 30.14 in 10.0 mi East 12.7 mph 20.7 mph N/A   Partly Cloudy
12:53 PM 87.1 °F 89.9 °F 66.9 °F 51% 30.13 in 10.0 mi ENE 13.8 mph 19.6 mph N/A   Scattered Clouds
1:53 PM 87.1 °F 89.9 °F 66.9 °F 51% 30.11 in 10.0 mi East 12.7 mph 18.4 mph N/A   Scattered Clouds
2:53 PM 90.0 °F 92.4 °F 66.0 °F 45% 30.08 in 10.0 mi NE 15.0 mph 21.9 mph N/A   Partly Cloudy
3:53 PM 87.1 °F 88.9 °F 64.9 °F 48% 30.07 in 10.0 mi East 15.0 mph - N/A   Mostly Cloudy
4:53 PM 86.0 °F 87.6 °F 64.9 °F 49% 30.05 in 10.0 mi East 9.2 mph - N/A   Mostly Cloudy
5:53 PM 86.0 °F 87.6 °F 64.9 °F 49% 30.05 in 10.0 mi East 9.2 mph - N/A   Mostly Cloudy
6:53 PM 84.9 °F 85.0 °F 61.0 °F 44% 30.03 in 10.0 mi ENE 10.4 mph - N/A   Partly Cloudy
7:53 PM 82.9 °F 84.4 °F 64.0 °F 53% 30.05 in 10.0 mi East 13.8 mph 21.9 mph N/A   Partly Cloudy
8:53 PM 80.1 °F 82.7 °F 68.0 °F 67% 30.07 in 10.0 mi East 13.8 mph 23.0 mph N/A   Scattered Clouds
9:53 PM 79.0 °F - 69.1 °F 72% 30.09 in 10.0 mi East 10.4 mph - N/A   Clear
10:53 PM 77.0 °F - 69.1 °F 76% 30.12 in 10.0 mi East 16.1 mph 19.6 mph N/A   Clear
11:53 PM 75.9 °F - 69.1 °F 79% 30.11 in 10.0 mi East 10.4 mph - N/A   Clear